Погода в Новоульяновске

Россия / Ульяновская область     54°09′06″N   48°23′05″E
темп.,
°C
ветер,
м/с
пор.,
м/с
влажн.,
%
обл.,
%
осадки,
мм/ч
давл.,
гПа
погр.,
м
10 августа, ср
ср1001:00+22зсз346595 0.0 101847
04:00+21ссз467789 0.0 1018117
07:00+20ссз22795 0.0 101883
10:00+22с23685 0.0 1019161
13:00+24ссв3359100 0.0 1019306
16:00+25с3459100 0.0 1018229
19:00+24ссв346182 0.0 1018106
22:00+22с457049 0.0 101979
11 августа, чт
чт1101:00+20с4682100 0.1 1020165
04:00+19ссв478312 0.3 1021277
07:00+18св578098 0.3 1022350
10:00+20ссв6758100 0.3 1023529
13:00+21ссв6652100 0.0 1023441
16:00+22ссв6752100 0.0 1023388
19:00+21ссв5755100 0.0 1023238
22:00+19св356085 0.0 1023122
12 августа, пт
пт1201:00+18всв35620 0.0 1024153
04:00+16всв34670 0.0 1024143
07:00+16в23684 0.0 1025171
10:00+19всв12565 0.0 1025407
13:00+21ссз22515 0.0 1024517
16:00+22с22495 0.0 1023385
19:00+22св0155100 0.0 1023147
22:00+21юз22545 0.0 102314
13 августа, сб
сб1301:00+20з22605 0.0 102317
04:00+19з22645 0.0 102333
07:00+19з236326 0.0 1023116
10:00+21сз235899 0.0 1023254
13:00+23с235279 0.0 1023466
16:00+24ссв23494 0.0 1022582
19:00+24с34555 0.0 1021206
22:00+21с22689 0.0 102227
14 августа, вс
вс1401:00+20ссв357495 0.0 102299
04:00+19св247115 0.0 1023118
07:00+18св24705 0.0 1023171
10:00+21ссв34614 0.0 1024315
13:00+23с445299 0.0 1023602
16:00+23с564847 0.0 1022330
19:00+22ссв69501 0.0 1022199
22:00+19св37580 0.0 1022133